Change the Weather History Date:

Wednesday, October 23, 2013

  Actual Average (KGAF) Record (KGAF)
Temperature  
Mean Temperature 32 °F -  
Max Temperature 39 °F 53 °F 75 °F (1963)
Min Temperature 26 °F 30 °F 9 °F (1976)
Degree Days  
Heating Degree Days 32    
Moisture  
Dew Point 29 °F    
Average Humidity 86    
Maximum Humidity 100    
Minimum Humidity 65    
Precipitation  
Precipitation 0.00 in - - ()
Sea Level Pressure  
Sea Level Pressure 30.10 in    
Wind  
Wind Speed 5 mph (NW)    
Max Wind Speed 18 mph    
Max Gust Speed 18 mph    
Visibility 10 miles    
Events      
Averages and records for this station are not official NWS values.
T = Trace of Precipitation, MM = Missing Value Source: NWS Daily Summary

Daily Weather History Graph

Daily Weather History Graph

Search for Another Location

Airport or City:

Trip Planner

Search our weather history database for the weather conditions in past years. The results will help you decide how hot, cold, wet, or windy it might be!

Date:

Astronomy

Oct. 23, 2013 Rise Set
Actual Time 8:04 AM CDT 6:26 PM CDT
Civil Twilight 7:32 AM CDT 6:58 PM CDT
Nautical Twilight 6:55 AM CDT 7:35 PM CDT
Astronomical Twilight 6:19 AM CDT 8:11 PM CDT
Moon 9:45 PM CDT (10/23) 12:36 PM CDT (10/23)
Length of Visible Light 11h 25m
Length of Day
10h 21m
Waning Gibbous, 79% of the Moon is Illuminated
Oct 23
Waning Gibbous
Oct 26
Last Quarter
Nov 3
New
Nov 9
First Quarter
Nov 17
Full

Hourly Weather History & Observations

Time (CDT) Temp. Windchill Dew Point Humidity Pressure Visibility Wind Dir Wind Speed Gust Speed Precip Events Conditions
12:15 AM 28.4 °F - 24.8 °F 86% 30.05 in 10.0 mi Calm Calm - N/A   Overcast
12:35 AM 28.4 °F - 24.8 °F 86% 30.05 in 10.0 mi Calm Calm - N/A   Overcast
12:55 AM 28.4 °F - 24.8 °F 86% 30.05 in 10.0 mi Calm Calm - N/A   Overcast
1:15 AM 28.4 °F - 24.8 °F 86% 30.05 in 10.0 mi Calm Calm - N/A   Overcast
1:35 AM 28.4 °F - 24.8 °F 86% 30.05 in 10.0 mi Calm Calm - N/A   Overcast
1:55 AM 28.4 °F 24.6 °F 24.8 °F 86% 30.05 in 10.0 mi West 3.5 mph - N/A   Overcast
2:15 AM 28.4 °F 23.3 °F 24.8 °F 86% 30.05 in 10.0 mi West 4.6 mph - N/A   Overcast
2:35 AM 28.4 °F 23.3 °F 24.8 °F 86% 30.05 in 10.0 mi West 4.6 mph - N/A   Overcast
2:55 AM 28.4 °F 24.6 °F 24.8 °F 86% 30.05 in 10.0 mi WNW 3.5 mph - N/A   Overcast
3:15 AM 28.4 °F 23.3 °F 24.8 °F 86% 30.05 in 10.0 mi West 4.6 mph - N/A   Overcast
3:35 AM 28.4 °F 23.3 °F 24.8 °F 86% 30.04 in 10.0 mi West 4.6 mph - N/A   Overcast
3:55 AM 28.4 °F 24.6 °F 24.8 °F 86% 30.04 in 10.0 mi NW 3.5 mph - N/A   Overcast
4:15 AM 30.2 °F 25.4 °F 24.8 °F 80% 30.04 in 10.0 mi NW 4.6 mph - N/A   Overcast
4:35 AM 28.4 °F 23.3 °F 23.0 °F 80% 30.04 in 10.0 mi NW 4.6 mph - N/A   Overcast
4:55 AM 28.4 °F 22.2 °F 23.0 °F 80% 30.04 in 10.0 mi NW 5.8 mph - N/A   Overcast
5:15 AM 28.4 °F 23.3 °F 24.8 °F 86% 30.04 in 10.0 mi NW 4.6 mph - N/A   Overcast
5:35 AM 28.4 °F 21.2 °F 23.0 °F 80% 30.05 in 10.0 mi NW 6.9 mph - N/A   Overcast
5:55 AM 28.4 °F 23.3 °F 24.8 °F 86% 30.05 in 10.0 mi NW 4.6 mph - N/A   Overcast
6:15 AM 26.6 °F 21.2 °F 23.0 °F 86% 30.05 in 10.0 mi WNW 4.6 mph - N/A   Mostly Cloudy
6:35 AM 26.6 °F 20.0 °F 23.0 °F 86% 30.06 in 10.0 mi WNW 5.8 mph - N/A   Scattered Clouds
6:55 AM 26.6 °F 21.2 °F 24.8 °F 93% 30.06 in 10.0 mi WNW 4.6 mph - N/A   Mostly Cloudy
7:15 AM 26.6 °F 21.2 °F 24.8 °F 93% 30.07 in 10.0 mi WNW 4.6 mph - N/A   Overcast
7:35 AM 26.6 °F 20.0 °F 26.6 °F 100% 30.08 in 10.0 mi North 5.8 mph - N/A   Overcast
7:55 AM 26.6 °F 22.6 °F 26.6 °F 100% 30.08 in 10.0 mi North 3.5 mph - N/A   Overcast
8:15 AM 26.6 °F 22.6 °F 26.6 °F 100% 30.08 in 10.0 mi WNW 3.5 mph - N/A   Overcast
8:35 AM 28.4 °F 23.3 °F 26.6 °F 93% 30.08 in 10.0 mi NW 4.6 mph - N/A   Overcast
8:55 AM 28.4 °F 22.2 °F 26.6 °F 93% 30.09 in 10.0 mi NW 5.8 mph - N/A   Overcast
9:15 AM 30.2 °F 23.4 °F 26.6 °F 86% 30.09 in 10.0 mi NW 6.9 mph - N/A   Overcast
9:35 AM 32.0 °F 24.8 °F 26.6 °F 80% 30.10 in 10.0 mi NW 8.1 mph - N/A   Overcast
9:55 AM 32.0 °F 24.2 °F 26.6 °F 80% 30.10 in 10.0 mi NW 9.2 mph - N/A   Overcast
10:15 AM 32.0 °F 24.2 °F 26.6 °F 80% 30.11 in 10.0 mi NNW 9.2 mph - N/A   Overcast
10:35 AM 32.0 °F 24.2 °F 24.8 °F 75% 30.11 in 10.0 mi NNW 9.2 mph - N/A   Overcast
10:55 AM 32.0 °F 23.6 °F 26.6 °F 80% 30.11 in 10.0 mi NW 10.4 mph - N/A   Overcast
11:15 AM 32.0 °F 23.6 °F 26.6 °F 80% 30.12 in 10.0 mi NW 10.4 mph - N/A   Overcast
11:35 AM 32.0 °F 23.6 °F 26.6 °F 80% 30.12 in 10.0 mi NW 10.4 mph - N/A   Overcast
11:55 AM 32.0 °F 23.6 °F 26.6 °F 80% 30.12 in 10.0 mi NNW 10.4 mph - N/A   Overcast
12:15 PM 32.0 °F 24.2 °F 26.6 °F 80% 30.12 in 10.0 mi NW 9.2 mph - N/A   Overcast
12:35 PM 33.8 °F 27.0 °F 26.6 °F 75% 30.12 in 10.0 mi NNW 8.1 mph - N/A   Mostly Cloudy
12:55 PM 33.8 °F 27.0 °F 28.4 °F 81% 30.12 in 10.0 mi NNW 8.1 mph - N/A   Mostly Cloudy
1:15 PM 35.6 °F 29.2 °F 28.4 °F 75% 30.11 in 10.0 mi NW 8.1 mph - N/A   Overcast
1:35 PM 35.6 °F 27.5 °F 28.4 °F 75% 30.11 in 10.0 mi NNW 11.5 mph - N/A   Overcast
1:55 PM 35.6 °F 27.5 °F 28.4 °F 75% 30.11 in 10.0 mi NNW 11.5 mph 16.1 mph N/A   Overcast
2:15 PM 37.4 °F 29.8 °F 28.4 °F 70% 30.11 in 10.0 mi NW 11.5 mph 17.3 mph N/A   Overcast
2:35 PM 37.4 °F 29.3 °F 30.2 °F 75% 30.10 in 10.0 mi NNW 12.7 mph 18.4 mph N/A   Overcast
2:55 PM 39.2 °F 32.0 °F 28.4 °F 65% 30.10 in 10.0 mi NNW 11.5 mph - N/A   Overcast
3:15 PM 39.2 °F 31.2 °F 28.4 °F 65% 30.10 in 10.0 mi NNW 13.8 mph - N/A   Overcast
3:35 PM 39.2 °F 32.0 °F 28.4 °F 65% 30.10 in 10.0 mi NNW 11.5 mph - N/A   Mostly Cloudy
3:55 PM 37.4 °F 28.5 °F 28.4 °F 70% 30.10 in 10.0 mi NNW 15.0 mph - N/A   Overcast
4:15 PM 37.4 °F 27.5 °F 32.0 °F 81% 30.11 in 10.0 mi NNW 18.4 mph - N/A   Overcast
4:35 PM 37.4 °F 30.3 °F 33.8 °F 87% 30.11 in 10.0 mi NW 10.4 mph - N/A   Overcast
4:55 PM 37.4 °F 28.5 °F 33.8 °F 87% 30.12 in 10.0 mi NW 15.0 mph - N/A   Overcast
5:15 PM 37.4 °F 28.9 °F 33.8 °F 87% 30.12 in 10.0 mi NNW 13.8 mph 18.4 mph N/A   Overcast
5:35 PM 37.4 °F 29.8 °F 35.6 °F 93% 30.12 in 10.0 mi NNW 11.5 mph - N/A   Overcast
5:55 PM 37.4 °F 30.8 °F 33.8 °F 87% 30.12 in 10.0 mi NNW 9.2 mph - N/A   Overcast
6:15 PM 37.4 °F 31.4 °F 33.8 °F 87% 30.12 in 10.0 mi NNW 8.1 mph - N/A   Overcast
6:35 PM 37.4 °F 31.4 °F 33.8 °F 87% 30.13 in 10.0 mi NW 8.1 mph - N/A   Mostly Cloudy
6:55 PM 35.6 °F 28.6 °F 35.6 °F 100% 30.13 in 10.0 mi NW 9.2 mph - N/A   Mostly Cloudy
7:15 PM 35.6 °F 29.2 °F 35.6 °F 100% 30.13 in 10.0 mi NW 8.1 mph - N/A   Overcast
7:35 PM 35.6 °F 29.9 °F 35.6 °F 100% 30.14 in 10.0 mi NW 6.9 mph - N/A   Overcast
7:55 PM 35.6 °F 31.7 °F 35.6 °F 100% 30.14 in 10.0 mi NW 4.6 mph - N/A   Overcast
8:15 PM 35.6 °F 30.7 °F 35.6 °F 100% 30.14 in 10.0 mi WNW 5.8 mph - N/A   Overcast
8:35 PM 35.6 °F 30.7 °F 35.6 °F 100% 30.14 in 10.0 mi WNW 5.8 mph - N/A   Overcast
8:55 PM 35.6 °F 30.7 °F 35.6 °F 100% 30.14 in 10.0 mi WNW 5.8 mph - N/A   Overcast
9:15 PM 35.6 °F 30.7 °F 35.6 °F 100% 30.14 in 10.0 mi WNW 5.8 mph - N/A   Overcast
9:35 PM 35.6 °F 31.7 °F 35.6 °F 100% 30.14 in 10.0 mi WNW 4.6 mph - N/A   Overcast
9:55 PM 35.6 °F 31.7 °F 35.6 °F 100% 30.14 in 10.0 mi NW 4.6 mph - N/A   Overcast
10:15 PM 35.6 °F 30.7 °F 33.8 °F 93% 30.14 in 10.0 mi NW 5.8 mph - N/A   Overcast
10:35 PM 37.4 °F 32.8 °F 33.8 °F 87% 30.15 in 10.0 mi NW 5.8 mph - N/A   Overcast
10:55 PM 37.4 °F 32.8 °F 33.8 °F 87% 30.15 in 10.0 mi NW 5.8 mph - N/A   Overcast
11:15 PM 37.4 °F 32.1 °F 33.8 °F 87% 30.15 in 10.0 mi WNW 6.9 mph - N/A   Overcast
11:35 PM 35.6 °F 31.7 °F 33.8 °F 93% 30.15 in 10.0 mi WNW 4.6 mph - N/A   Overcast
11:55 PM 35.6 °F 30.7 °F 33.8 °F 93% 30.15 in 10.0 mi WNW 5.8 mph - N/A   Mostly Cloudy